FENGYUN 1C DEB, 29852

Orbit data source: Space-Track

FENGYUN 1C DEB, 29852 is space debris in SSO originally from a launch on Mon, 10 May 1999 UTC launched from the Taiyaun Space Center, China (TSC). Fengyun 1C debris stems from the Chinese weather satellite Fengyun-1C, which was intentionally destroyed by a Chinese anti-satellite missile in 2007. This event dramatically increased the amount of space debris, with thousands of trackable fragments posing hazards to satellites and human spaceflight. The Fengyun 1C debris cloud has become a focal point in discussions about space sustainability and the need for international regulations to prevent the creation of new debris.

Loading next visibility...
Identifier
29852, 1999-025EW
Orbit
SSO
Country
Flag of CNCN / PRC
Related business
Manufacturer
Unknown
Mission
Spacecraft
Bus & Motor
Unknown
Mass
Unknown
Launch date (UTC)
1999-05-10 (27 years ago)
Launch vehicle
Unknown
Launch site
Taiyaun Space Center, China (TSC)
Object type
Payload
Rocket body
Debris
Shape & HBR
Unknown shape, 0.1 m
Radar Cross Section
Medium (>0.1 m² and <1 m²)

Expand to show TLE details & history
Last TLE update: 1 day ago

TLE from 1 day ago
0 FENGYUN 1C DEB
1 29852U 99025EW  26166.66561288  .00002491  00000-0  13703-2 0  9996
2 29852  99.3607 188.3286 0132514 359.3066 123.3080 14.08270481985864
Epoch: 2026-06-15T15:58Z
TLE epoch observation values (Epoch: 2026-06-15T15:58:28.952Z)
Latitude
55.10709°
Longitude
-121.64163°
Altitude
927.965 km
Speed
7.366 km/s
True Right ascension
01h 27m 42s
True Declination
54° 56' 58"
Sunlit
Object was in daylight at epoch
Visualization orbit readout
Latitude
Unknown
Longitude
Unknown
Altitude
Unknown
Speed
Unknown
Apparent Right ascension
Unknown
Apparent Declination
Unknown
Sunlit
N/A
Visualization observer readout
Local Sidereal Time
04:16:23
Azimuth
Unknown
Elevation
Unknown
Doppler factor
Unknown
Orbital elements
Apogee altitude
958.45 km
Perigee altitude
766.553 km
Semi-major axis
7,240.639 km
Eccentricity
0.01325
Inclination
99.3607°
RAAN
188.3286°
Arg. of periapsis
359.3066°
True anomaly
124.56551°
Mean anomaly
123.308°
Eccentric anomaly
123.93791°
Mean motion
3.52272 °/min
Orbital period
102.19 mins
BSTAR
0.0013703
Loading maneuver chart data...
Computing Atmospheric mass density...

Documentation

Showing up to 5 results
|